Showing default

COSMOS 2300, 23442

Orbit data source: Space-Track

COSMOS 2300, 23442 is a payload satellite owned by VKS (CIS) in LEO that was launched on Mon, 26 Dec 1994 UTC via a TSIKLON-3 launch vehicle from the Plesetsk Missile And Space Complex (PKMTR). Payload-class satellites include a variety of spacecraft equipped with specific instruments for various scientific and technological missions. These include communications satellites like Starlink; space stations such as the ISS; scientific satellites like the Hubble; Earth observation satellites from companies like Planet Labs, Umbra, and HawkEye 360; GPS; miniature CubeSats for education and research; and military/defense satellites.

Loading next visibility...
Identifier
23442, 1994-086B
Orbit
LEO
Country
Flag of CISCIS
Related business
Manufacturer
NPO PM
Mission
Defense Communications
Bus & Motor
STRELA-3, Unknown motor
Mass
225 kg wet, 225 kg dry
Launch date (UTC)
1994-12-26 (31 years ago)
Launch vehicle
TSIKLON-3
Launch site
Plesetsk Missile And Space Complex (PKMTR)
Object type
Payload
Rocket body
Debris
Shape & HBR
Cyl, 0.8 m
Radar Cross Section
1.257 m², Large (>1 m²)

Expand to show TLE details & history
Last TLE update: 8 hours ago

TLE from 8 hours ago
0 COSMOS 2300
1 23442U 94086B   26071.31778341  .00000025  00000-0  80954-4 0  9999
2 23442  82.5685   5.7489 0003408  91.8186  78.6217 12.62803823438362
Epoch: 2026-03-12T07:37Z
TLE epoch observation values (Epoch: 2026-03-12T07:37:36.486Z)
Latitude
9.38609°
Longitude
-99.85187°
Altitude
1,412.877 km
Speed
7.155 km/s
True Right ascension
12h 18m 04s
True Declination
9° 20' 08"
Sunlit
Object was in full shadow at epoch
Visualization orbit readout
Latitude
Unknown
Longitude
Unknown
Altitude
Unknown
Speed
Unknown
Apparent Right ascension
Unknown
Apparent Declination
Unknown
Sunlit
N/A
Visualization observer readout
Local Sidereal Time
19:32:26
Azimuth
Unknown
Elevation
Unknown
Doppler factor
Unknown
Orbital elements
Apogee altitude
1,411.367 km
Perigee altitude
1,406.06 km
Semi-major axis
7,786.85 km
Eccentricity
0.00034
Inclination
82.5685°
RAAN
5.7489°
Arg. of periapsis
91.8186°
True anomaly
78.65999°
Mean anomaly
78.6217°
Eccentric anomaly
78.64084°
Mean motion
3.15864 °/min
Orbital period
113.97 mins
BSTAR
0.000080954
Loading maneuver chart data...
Computing Atmospheric mass density...
Loading historical data...
Loading historical data...
Loading historical data...
Loading historical data...
Loading historical data...
Loading historical data...
Loading historical data...

Documentation

Showing up to 5 results
|